Weather History for KLRF - April, 2013

Change the Weather History Date:

Tuesday, April 9, 2013

  Actual Average Record
Temperature  
Mean Temperature 74 °F -  
Max Temperature 85 °F 69 °F 88 °F (2011)
Min Temperature 62 °F 47 °F 30 °F (1982)
Cooling Degree Days 8    
Growing Degree Days 24 (Base 50)    
Moisture  
Dew Point 62 °F    
Average Humidity 71    
Maximum Humidity 91    
Minimum Humidity 45    
Precipitation  
Precipitation 0.00 in - - ()
Sea Level Pressure  
Sea Level Pressure 29.87 in    
Wind  
Wind Speed 7 mph (SSE)    
Max Wind Speed 18 mph    
Max Gust Speed 25 mph    
Visibility 9 miles    
Events Rain    
Averages and records for this station are not official NWS values.
T = Trace of Precipitation, MM = Missing Value Source: NWS Daily Summary

Daily Weather History Graph

Daily Weather History Graph

Search for Another Location

Airport or City:

Trip Planner

Search our weather history database for the weather conditions in past years. The results will help you decide how hot, cold, wet, or windy it might be!

Date:

Astronomy

Apr. 09, 2013 Rise Set
Actual Time 6:44 AM CDT 7:36 PM CDT
Civil Twilight 6:18 AM CDT 8:02 PM CDT
Nautical Twilight 5:48 AM CDT 8:32 PM CDT
Astronomical Twilight 5:16 AM CDT 9:04 PM CDT
Moon 6:06 AM CDT (4/9) 7:12 PM CDT (4/9)
Length of Visible Light 13h 43m
Length of Day
12h 52m
Waning Crescent, 1% of the Moon is Illuminated
Apr 9
Waning Crescent
Apr 10
New
Apr 18
First Quarter
Apr 25
Full
May 2
Last Quarter

Hourly Weather History & Observations

Time (CDT) Temp. Heat Index Dew Point Humidity Pressure Visibility Wind Dir Wind Speed Gust Speed Precip Events Conditions
12:21 AM 68.0 °F - 57.2 °F 68% 29.85 in 7.0 mi South 4.6 mph - N/A   Haze
12:58 AM 67.5 °F - 57.9 °F 71% 29.86 in 7.0 mi SSE 5.8 mph - N/A   Clear
1:58 AM 66.0 °F - 57.9 °F 75% 29.86 in 10.0 mi SSE 4.6 mph - N/A   Clear
2:58 AM 66.0 °F - 58.5 °F 77% 29.85 in 10.0 mi Variable 4.6 mph - N/A   Clear
3:02 AM 66.2 °F - 59.0 °F 78% 29.84 in 10.0 mi South 3.5 mph - N/A Rain Light Rain
3:05 AM 66.2 °F - 59.0 °F 78% 29.84 in 10.0 mi Variable 2.3 mph - N/A   Clear
3:58 AM 65.1 °F - 58.6 °F 79% 29.86 in 10.0 mi South 5.8 mph - 0.00 in   Clear
4:58 AM 64.8 °F - 59.2 °F 82% 29.88 in 10.0 mi South 5.8 mph - N/A   Scattered Clouds
5:58 AM 62.8 °F - 58.8 °F 87% 29.88 in 10.0 mi SSE 4.6 mph - N/A   Clear
6:43 AM 62.6 °F - 59.0 °F 88% 29.89 in 10.0 mi SE 3.5 mph - N/A   Mostly Cloudy
6:58 AM 62.1 °F - 59.4 °F 91% 29.89 in 10.0 mi SE 3.5 mph - N/A   Overcast
7:23 AM 62.6 °F - 59.0 °F 88% 29.90 in 9.0 mi ESE 4.6 mph - N/A   Scattered Clouds
7:58 AM 63.9 °F - 60.1 °F 87% 29.91 in 7.0 mi East 4.6 mph - N/A   Clear
8:13 AM 64.4 °F - 60.8 °F 88% 29.91 in 7.0 mi SE 3.5 mph - N/A   Mostly Cloudy
8:58 AM 66.0 °F - 61.9 °F 86% 29.91 in 7.0 mi SSE 6.9 mph - N/A   Overcast
9:08 AM 66.2 °F - 62.6 °F 88% 29.92 in 8.0 mi SSE 5.8 mph - N/A   Overcast
9:58 AM 68.0 °F - 64.2 °F 88% 29.94 in 7.0 mi SSE 9.2 mph - N/A   Overcast
10:28 AM 69.8 °F - 64.4 °F 83% 29.93 in 9.0 mi SSE 8.1 mph 20.7 mph N/A   Overcast
10:58 AM 72.3 °F - 64.0 °F 75% 29.94 in 10.0 mi South 13.8 mph 21.9 mph N/A   Mostly Cloudy
11:28 AM 75.2 °F - 64.4 °F 69% 29.92 in 10.0 mi SSE 10.4 mph 23.0 mph N/A   Mostly Cloudy
11:58 AM 75.6 °F - 64.6 °F 69% 29.91 in 10.0 mi SSE 11.5 mph 18.4 mph N/A   Scattered Clouds
12:58 PM 78.8 °F - 61.9 °F 56% 29.88 in 10.0 mi SSE 13.8 mph 25.3 mph N/A   Scattered Clouds
12:59 PM 78.8 °F - 60.8 °F 54% 29.88 in 10.0 mi South 18.4 mph 25.3 mph N/A   Scattered Clouds
1:58 PM 80.8 °F 81.5 °F 60.6 °F 50% 29.86 in 10.0 mi South 12.7 mph 23.0 mph N/A   Partly Cloudy
2:58 PM 83.1 °F 83.5 °F 61.0 °F 47% 29.83 in 10.0 mi SSE 12.7 mph 23.0 mph N/A   Clear
3:09 PM 84.2 °F 84.4 °F 60.8 °F 45% 29.82 in 10.0 mi SE 13.8 mph 21.9 mph N/A   Clear
3:58 PM 82.6 °F 83.4 °F 62.4 °F 50% 29.81 in 10.0 mi SSE 11.5 mph 25.3 mph N/A   Partly Cloudy
4:58 PM 85.1 °F 85.9 °F 62.8 °F 47% 29.81 in 10.0 mi SSE 13.8 mph 24.2 mph N/A   Partly Cloudy
5:58 PM 84.0 °F 85.6 °F 64.4 °F 52% 29.81 in 10.0 mi SSE 13.8 mph 20.7 mph N/A   Clear
6:58 PM 81.5 °F 83.4 °F 65.5 °F 58% 29.82 in 10.0 mi SSE 10.4 mph - N/A   Partly Cloudy
7:58 PM 80.1 °F 82.0 °F 65.5 °F 61% 29.79 in 10.0 mi SE 11.5 mph 16.1 mph N/A   Clear
8:58 PM 79.2 °F - 65.8 °F 64% 29.82 in 10.0 mi South 10.4 mph 17.3 mph N/A   Scattered Clouds
9:58 PM 78.3 °F - 66.4 °F 67% 29.84 in 10.0 mi Variable 4.6 mph - N/A   Clear
10:32 PM 75.2 °F - 66.2 °F 73% 29.85 in 10.0 mi SSE 2.3 mph - N/A   Light Drizzle
10:41 PM 75.2 °F - 66.2 °F 73% 29.85 in 10.0 mi SSE 4.6 mph - N/A   Partly Cloudy
10:58 PM 75.7 °F - 66.4 °F 73% 29.86 in 10.0 mi South 8.1 mph - 0.00 in   Partly Cloudy
11:58 PM 76.1 °F - 66.9 °F 73% 29.83 in 10.0 mi South 8.1 mph - N/A   Clear